Theta_e
310 310 310 309 309 309 309 310 310 311 311 312 312 313 314 314 315 316 315 313 312 312 312 313 314 314 317 319 317 316 319 320 320 320 321 318 319 317 317 318 317 315 316 314 314
311 310 310 309 309 309 310 310 311 311 312 312 313 314 316 318 318 318 315 314 313 312 312 315 316 316 318 319 319 319 320 319 320 320 320 319 319 318 317 317 317 315 314 314 313
311 311 310 310 309 309 310 310 311 312 312 313 314 316 318 319 319 316 313 313 313 312 312 313 315 316 318 318 319 318 319 317 318 318 319 319 318 318 318 319 318 318 315 312 312
311 311 311 310 309 309 310 310 311 312 312 313 315 318 319 319 321 315 312 312 312 312 312 314 316 316 317 318 318 319 317 317 318 317 318 319 319 318 318 318 315 314 313 312 312
311 310 311 311 310 309 309 310 311 312 312 313 316 319 319 319 320 318 313 311 311 312 315 316 315 316 317 317 318 319 318 317 318 317 317 317 318 318 318 315 313 313 312 311 311
311 310 310 311 310 309 309 310 311 312 312 314 318 319 318 320 319 318 318 314 311 312 313 314 315 316 317 317 317 317 317 317 317 317 316 316 317 316 317 313 312 311 311 310 311
310 310 310 310 310 309 309 309 311 312 312 315 318 318 318 320 319 318 317 317 313 311 315 312 313 315 317 317 315 316 317 318 318 316 316 315 317 316 317 312 312 312 310 310 310
310 310 310 310 310 310 309 309 310 311 312 315 318 318 319 320 318 318 317 316 315 313 312 312 313 316 317 315 316 317 317 320 319 315 315 315 321 320 313 312 312 312 311 309 309
309 309 309 310 310 310 308 309 310 311 313 316 318 318 320 318 317 317 317 316 315 313 312 312 315 317 315 317 319 319 321 322 321 316 316 316 321 316 312 313 314 313 311 309 307
308 309 309 310 310 309 308 308 310 311 314 317 318 318 318 316 316 316 316 315 314 313 314 315 316 317 318 319 322 322 322 321 321 318 316 318 318 317 313 313 315 314 312 309 307
309 308 309 310 310 309 308 309 311 318 316 318 320 320 316 316 315 314 315 314 314 315 318 316 318 319 320 319 320 320 320 321 321 316 316 319 319 319 316 313 314 315 313 310 307
310 310 310 310 309 308 308 317 318 317 320 319 318 318 316 315 313 313 314 315 315 318 317 316 318 319 319 318 319 318 319 320 321 316 315 317 318 318 318 316 315 315 314 310 306
320 308 310 310 309 309 308 313 313 318 319 319 319 319 317 315 315 314 314 315 316 318 317 319 319 315 316 316 317 318 319 320 320 316 314 316 318 318 318 317 316 313 314 311 306
323 311 309 311 313 311 311 309 315 318 319 318 318 319 317 315 315 313 313 313 312 317 317 317 317 315 315 317 317 319 319 317 317 317 321 317 322 322 321 317 313 311 310 308 306
323 315 309 309 316 314 310 310 317 318 320 319 318 315 313 317 314 310 311 311 316 314 315 318 314 314 316 317 316 318 315 316 317 318 319 320 319 322 322 321 316 311 309 307 305
323 316 311 314 317 312 310 315 320 321 320 319 314 315 315 316 312 309 310 310 313 314 313 316 311 314 316 312 314 313 315 315 315 318 322 321 322 323 321 317 318 312 308 307 304
323 318 315 314 315 315 316 318 321 320 318 318 317 314 318 316 313 313 312 312 316 317 318 317 316 313 312 314 311 314 318 324 323 321 324 316 321 322 319 313 314 311 308 305 303
323 319 315 314 315 315 319 320 321 318 318 316 316 315 319 315 315 313 313 315 314 318 322 323 323 318 313 318 318 315 319 325 328 327 324 311 318 319 316 311 308 311 307 304 302
321 318 316 316 315 316 318 319 318 316 317 317 315 318 318 315 316 313 315 318 318 317 321 322 323 315 313 314 318 315 317 318 319 312 320 320 317 317 309 308 307 308 306 304 302
320 318 317 316 316 317 318 318 317 317 318 320 318 319 321 317 316 315 317 318 319 316 317 321 322 314 311 310 312 314 315 316 317 326 326 322 321 321 313 311 308 307 306 304 302
318 318 318 317 317 316 318 315 317 317 318 319 320 320 319 320 317 315 320 318 317 316 315 318 319 315 310 313 316 313 315 315 317 319 325 325 323 319 319 315 311 307 306 305 303
317 320 318 318 317 317 317 318 316 317 318 318 318 319 319 319 317 317 319 319 314 313 315 317 319 323 317 313 313 315 316 316 320 319 317 320 322 311 317 316 311 309 307 306 303
315 318 318 318 320 318 317 317 316 318 319 319 318 318 319 319 317 318 319 317 313 314 316 315 318 324 322 314 310 312 313 314 315 316 322 323 322 310 309 312 311 310 307 306 304
314 318 317 319 318 318 317 318 317 317 318 319 319 319 319 321 317 320 320 314 313 313 315 314 318 322 325 323 318 315 313 313 315 318 319 321 320 311 310 310 309 309 307 306 304
313 313 312 319 319 318 317 318 318 318 318 317 319 319 320 320 320 318 319 314 311 310 312 314 319 320 320 320 320 318 316 314 314 316 319 320 319 319 312 311 310 308 308 306 304
306 307 307 309 310 317 317 318 318 319 318 318 318 319 319 321 322 321 319 318 316 310 311 311 316 317 318 318 319 319 317 316 314 314 316 317 319 318 312 311 311 309 308 306 305
307 306 307 305 309 311 317 318 318 318 317 318 318 318 319 319 319 319 319 318 318 315 310 312 313 316 319 317 317 315 316 316 316 314 315 317 316 312 313 310 309 309 307 307 306
Wind_Speed
5 4 3 2 2 2 2 3 2 3 3 4 4 6 6 6 7 6 4 5 6 6 5 3 1 1 1 1 1 1 4 6 5 7 5 8 7 4 1 2 2 1 1 3 5
5 4 4 4 4 4 4 4 4 4 5 6 6 7 7 8 8 6 6 6 7 6 6 3 3 2 2 1 1 4 4 2 3 2 4 9 6 6 5 6 5 4 2 3 3
8 6 6 6 6 6 5 5 5 6 6 7 7 7 8 8 7 4 5 5 7 8 6 6 4 2 2 2 1 1 5 2 4 3 2 6 5 4 6 7 4 7 6 3 3
11 9 8 8 8 8 7 7 7 7 7 8 8 8 8 6 4 3 1 2 6 8 8 6 2 3 3 3 2 5 1 1 3 3 2 5 2 5 8 1 5 6 7 5 3
14 13 11 10 10 10 10 9 9 9 9 8 8 9 8 5 6 6 3 3 6 8 6 3 3 3 5 2 3 5 3 3 3 3 4 3 9 9 9 7 8 6 6 5 3
18 16 15 13 13 12 12 11 11 11 11 10 9 9 7 9 8 8 8 7 8 8 6 4 3 3 2 2 5 1 4 5 5 9 8 7 11 4 8 13 9 7 6 4 2
22 20 18 16 15 15 14 13 12 12 12 11 10 9 10 12 10 9 9 10 10 11 5 8 5 3 2 2 2 2 6 8 12 11 5 8 10 14 10 12 11 11 7 5 4
24 22 21 18 17 17 16 15 14 13 13 12 10 8 8 12 13 14 11 10 10 11 11 8 6 4 2 3 2 4 4 7 7 9 4 8 10 7 11 15 14 12 9 6 5
26 25 23 20 19 18 18 16 15 15 14 12 10 6 8 10 12 16 13 7 10 9 9 8 6 4 4 6 6 8 10 9 5 8 5 11 5 7 11 15 14 12 11 8 6
29 26 25 23 21 20 18 17 16 15 15 12 12 5 13 6 10 12 14 11 6 9 5 6 6 7 8 10 10 9 11 9 10 5 7 10 14 7 13 15 16 14 12 10 8
30 29 27 25 23 21 17 13 10 7 15 12 5 6 4 11 8 9 14 12 7 10 9 10 9 13 17 16 17 8 9 13 9 3 4 13 15 14 16 17 19 20 16 13 11
29 30 28 26 23 22 17 8 9 3 9 14 23 16 12 10 5 11 16 12 11 13 12 5 15 17 10 9 12 12 13 16 14 3 4 12 17 16 19 21 25 23 20 17 13
27 29 29 26 23 23 20 15 12 6 8 14 19 17 18 19 9 16 22 11 10 15 15 17 3 5 9 8 11 14 15 15 14 2 11 13 20 24 25 27 25 16 17 17 16
29 29 29 21 19 20 21 19 8 2 6 14 9 11 18 14 10 14 24 9 7 15 14 13 10 6 9 14 13 15 13 13 12 7 10 4 9 9 7 13 14 16 17 18 17
32 30 31 31 10 21 21 13 12 5 8 3 8 6 11 19 14 10 21 10 13 10 8 5 9 12 13 16 10 8 2 6 9 11 13 16 8 11 16 17 16 17 20 20 18
37 32 32 29 23 21 18 16 17 5 16 6 7 9 10 15 4 7 10 5 5 7 7 8 2 6 6 4 6 9 5 3 3 6 9 17 16 9 10 8 12 18 20 22 21
40 35 38 37 36 22 24 35 5 13 6 11 7 9 17 10 9 10 15 15 14 9 16 13 14 6 5 6 3 12 8 4 5 6 8 2 12 15 6 7 6 18 24 24 24
41 41 42 41 33 31 35 10 10 34 33 10 5 10 14 13 9 10 13 13 23 18 8 12 9 22 16 20 9 20 16 6 6 6 4 2 8 6 3 9 6 14 22 23 22
39 47 50 48 44 43 37 17 20 42 22 17 8 8 14 11 7 11 15 16 15 22 15 13 9 7 9 5 14 7 12 10 4 2 4 7 10 8 7 8 10 15 22 25 25
45 48 55 54 47 51 21 22 26 25 24 19 28 19 18 16 13 16 17 13 14 24 17 5 5 6 5 4 5 9 9 5 6 5 8 10 14 10 9 15 15 16 23 25 25
44 20 34 55 55 34 17 19 31 31 31 26 25 22 22 15 18 13 10 7 19 20 23 9 6 6 7 13 18 8 9 9 5 8 5 6 9 9 15 16 19 20 25 28 29
35 11 22 51 19 12 17 40 25 29 30 12 15 23 20 18 15 17 18 13 24 22 16 12 3 9 13 2 10 16 14 20 7 6 5 6 14 3 5 12 20 24 26 28 31
11 24 24 53 16 15 20 22 26 20 30 23 17 16 19 18 10 21 15 15 22 18 20 13 6 3 6 3 1 9 16 13 18 1 16 8 7 4 4 7 15 19 23 26 29
9 5 19 37 44 25 22 25 24 31 25 34 17 13 17 22 18 11 19 7 22 18 18 21 7 14 19 10 9 10 15 21 19 12 18 27 17 8 11 13 16 18 22 24 29
12 3 1 5 16 26 29 23 32 26 32 32 21 29 25 18 21 25 14 6 4 10 8 11 13 17 24 22 17 11 18 23 28 35 16 27 25 16 16 16 23 24 20 20 23
12 7 2 5 8 21 29 30 32 33 22 28 26 32 26 26 27 18 21 16 10 9 8 2 11 17 25 23 22 25 20 25 30 31 30 30 29 10 24 23 17 20 22 23 27
7 15 12 3 4 6 12 31 33 26 30 39 37 27 27 38 40 37 26 16 12 15 14 11 7 8 17 15 18 6 39 23 27 30 26 28 29 5 10 13 21 22 22 28 31
Wind_Direction
182 184 186 211 223 237 264 283 298 311 315 316 326 329 326 322 317 306 279 252 226 215 207 199 226 260 55 22 32 293 242 217 197 203 167 157 186 159 204 225 150 70 59 184 213
214 220 227 235 249 259 268 282 295 302 308 312 323 329 329 328 321 299 275 246 232 211 188 193 216 205 202 194 281 268 264 195 18 165 180 167 203 176 216 205 196 138 192 233 230
230 239 251 260 259 261 268 277 285 292 302 310 316 322 326 329 321 249 273 235 210 198 193 192 176 204 224 261 243 250 289 123 150 140 150 166 200 208 232 238 245 221 179 158 114
236 240 249 258 267 271 271 276 284 291 294 301 309 313 317 323 305 278 246 185 179 171 160 159 199 237 257 238 225 234 186 179 146 171 171 200 244 241 241 337 142 143 160 161 144
244 246 248 255 261 267 272 276 281 286 291 296 302 306 315 291 264 260 236 190 168 165 167 198 236 266 259 225 218 245 182 205 175 179 229 271 246 258 247 202 187 183 167 171 200
248 249 253 255 260 261 266 272 277 283 287 292 296 301 303 266 262 250 239 223 201 188 208 205 266 247 271 244 243 29 229 228 227 229 234 231 248 241 240 181 180 178 166 189 223
247 249 251 256 261 264 265 268 274 280 283 288 292 296 278 262 265 250 236 228 221 211 220 230 223 217 195 203 207 252 264 232 232 223 237 218 245 228 214 181 187 180 177 195 220
243 247 250 253 258 262 265 267 271 276 278 282 287 293 267 256 254 242 232 225 223 221 219 222 205 179 242 141 182 245 249 251 109 172 182 198 266 161 166 176 182 181 178 180 214
243 244 246 249 253 258 261 264 268 272 274 277 282 264 262 257 241 232 219 216 217 215 212 201 172 206 173 222 234 209 262 212 183 197 151 206 272 144 179 188 187 189 186 184 199
247 243 245 246 247 253 256 261 268 274 272 272 256 259 243 229 233 222 212 195 178 176 150 179 204 219 223 215 233 265 226 246 255 146 219 221 249 175 196 206 209 202 197 198 197
246 244 242 244 246 245 250 260 280 276 237 215 239 226 234 218 213 199 196 179 158 192 207 204 217 220 224 228 255 293 285 275 276 110 272 254 262 260 194 215 222 217 212 208 203
249 242 240 240 241 242 235 216 234 235 294 260 241 234 233 199 177 195 182 181 193 209 205 188 231 240 240 274 240 244 259 262 271 142 253 273 264 260 251 212 224 221 216 212 200
255 241 236 234 234 234 231 227 235 259 262 258 233 232 225 215 214 194 182 198 211 217 203 227 217 250 196 205 221 234 243 260 272 169 234 276 269 250 244 244 227 235 234 209 200
251 240 231 219 223 226 229 228 216 223 268 245 206 224 201 186 221 187 192 182 207 221 216 240 228 160 204 227 220 248 231 255 266 262 270 167 282 262 230 210 217 223 213 198 191
242 237 224 217 217 200 228 212 174 157 274 26 137 190 170 188 137 185 183 191 209 188 181 197 188 204 220 231 210 260 48 237 251 258 274 253 267 267 241 225 211 208 205 201 191
237 228 215 206 205 217 201 160 154 209 241 164 136 168 163 198 172 121 171 172 203 197 237 256 40 208 221 68 214 128 113 110 224 251 252 234 226 256 208 228 234 180 192 188 186
238 223 210 206 207 192 171 147 164 228 129 190 174 177 196 179 176 181 181 188 185 194 223 220 223 176 176 147 154 200 176 239 237 212 250 109 216 248 184 148 183 180 183 184 183
243 223 213 215 206 189 167 159 202 231 223 105 149 171 189 170 198 187 180 204 219 221 255 210 225 199 199 211 188 197 200 207 249 228 255 71 230 236 249 116 128 182 180 179 182
246 223 214 211 209 192 171 192 214 226 222 200 153 190 207 204 202 179 207 216 203 209 197 204 230 168 183 206 202 179 222 255 284 187 272 217 243 263 160 176 169 167 175 182 186
239 222 216 214 203 194 188 207 225 226 223 212 213 197 197 195 186 192 190 221 210 197 211 219 233 179 150 158 237 217 162 179 218 229 240 249 249 237 212 202 182 178 185 187 189
230 220 217 214 204 200 204 208 223 214 213 225 219 220 226 198 198 195 209 197 200 184 199 207 232 133 153 203 188 182 208 224 249 228 249 266 250 191 204 197 189 187 188 188 190
222 225 226 204 198 207 207 216 212 214 234 242 237 220 213 205 201 206 215 212 190 156 184 201 246 229 218 94 262 238 218 207 219 190 244 270 260 147 185 183 179 188 187 189 193
237 217 215 193 207 206 223 224 226 212 214 215 220 224 226 213 215 221 213 216 177 173 169 167 216 237 252 187 182 224 221 233 230 9 228 222 247 145 170 174 181 175 181 186 188
245 212 208 206 205 209 211 218 218 219 227 222 224 215 221 228 211 234 218 162 192 201 196 170 165 205 232 229 169 206 213 211 216 226 235 235 247 186 197 190 185 184 180 183 188
220 267 328 212 212 207 211 221 220 215 218 211 224 227 217 228 224 225 209 138 201 219 187 193 223 225 240 251 264 225 212 206 212 228 221 248 236 221 196 195 194 188 180 179 190
165 171 259 285 300 223 207 215 219 219 204 213 221 221 223 227 222 215 214 205 198 182 191 229 236 232 252 241 245 246 237 219 218 228 234 246 251 239 191 200 194 187 183 190 202
257 213 202 229 303 275 233 221 222 223 219 220 218 221 218 226 228 237 239 241 239 193 186 173 217 202 244 229 245 279 236 225 229 223 222 231 241 143 178 192 195 192 195 206 213